Hamilton, OH

8:28 PM EDT on May 26, 2018 (GMT -0400)
Butler County Regional

Weather History for KHAO - August, 2013

Change the Weather History Date:

Tuesday, August 6, 2013

  Actual Average (WUND) Record (WUND)
Temperature  
Mean Temperature 72 °F -  
Max Temperature 84 °F - - (-1)
Min Temperature 62 °F - - (-1)
Cooling Degree Days 7    
Growing Degree Days 22 (Base 50)    
Moisture  
Dew Point 63 °F    
Average Humidity 73    
Maximum Humidity 90    
Minimum Humidity 56    
Precipitation  
Precipitation 0.00 in - - ()
Sea Level Pressure  
Sea Level Pressure 29.96 in    
Wind  
Wind Speed 1 mph (SSE)    
Max Wind Speed 8 mph    
Max Gust Speed -    
Visibility 10 miles    
Events      
Averages and records for this station are not official NWS values.
T = Trace of Precipitation, MM = Missing Value Source: NWS Daily Summary

Daily Weather History Graph

Daily Weather History Graph

Search for Another Location

Airport or City:

Astronomy

Aug. 06, 2013 Rise Set
Actual Time 6:42 AM EDT 8:44 PM EDT
Civil Twilight 6:13 AM EDT 9:13 PM EDT
Nautical Twilight 5:37 AM EDT 9:49 PM EDT
Astronomical Twilight 4:58 AM EDT 10:28 PM EDT
Moon 6:32 AM EDT (8/6) 8:19 PM EDT (8/6)
Length of Visible Light 15h 00m
Length of Day
14h 01m
Waning Crescent, 0% of the Moon is Illuminated
Aug 6
Waning Crescent
Aug 6
New
Aug 14
First Quarter
Aug 20
Full
Aug 28
Last Quarter

Hourly Weather History & Observations

Time (EDT) Temp. Heat Index Dew Point Humidity Pressure Visibility Wind Dir Wind Speed Gust Speed Precip Events Conditions
12:53 AM 66.9 °F - 59.0 °F 76% 29.99 in 10.0 mi Calm Calm - N/A   Partly Cloudy
1:53 AM 63.0 °F - 59.0 °F 87% 29.98 in 10.0 mi Calm Calm - N/A   Clear
2:53 AM 63.0 °F - 57.9 °F 84% 29.98 in 10.0 mi Calm Calm - N/A   Clear
3:53 AM 62.1 °F - 59.0 °F 90% 29.98 in 10.0 mi Calm Calm - N/A   Mostly Cloudy
4:53 AM 63.0 °F - 57.9 °F 84% 29.96 in 10.0 mi Calm Calm - N/A   Mostly Cloudy
5:53 AM 64.9 °F - 59.0 °F 81% 29.96 in 10.0 mi Calm Calm - N/A   Overcast
6:53 AM 64.9 °F - 60.1 °F 84% 29.98 in 10.0 mi Calm Calm - N/A   Overcast
7:53 AM 66.0 °F - 60.1 °F 81% 29.99 in 10.0 mi Calm Calm - N/A   Overcast
8:53 AM 69.1 °F - 59.0 °F 70% 30.00 in 10.0 mi Calm Calm - N/A   Overcast
9:53 AM 72.0 °F - 59.0 °F 64% 29.99 in 10.0 mi SE 5.8 mph - N/A   Scattered Clouds
10:53 AM 75.9 °F - 61.0 °F 60% 29.97 in 10.0 mi Variable 5.8 mph - N/A   Overcast
11:53 AM 78.1 °F - 64.0 °F 62% 29.97 in 10.0 mi SSE 3.5 mph - N/A   Overcast
12:53 PM 81.0 °F 82.7 °F 64.9 °F 58% 29.96 in 10.0 mi SSW 8.1 mph - N/A   Mostly Cloudy
1:53 PM 78.1 °F - 64.9 °F 64% 29.97 in 10.0 mi South 3.5 mph - N/A   Overcast
2:53 PM 81.0 °F 83.0 °F 66.0 °F 60% 29.95 in 10.0 mi Variable 3.5 mph - N/A   Mostly Cloudy
3:53 PM 82.0 °F 83.8 °F 64.9 °F 56% 29.96 in 10.0 mi Calm Calm - N/A   Mostly Cloudy
4:53 PM 82.9 °F 85.0 °F 66.0 °F 56% 29.94 in 10.0 mi SE 5.8 mph - N/A   Mostly Cloudy
5:53 PM 82.0 °F 84.9 °F 68.0 °F 62% 29.94 in 10.0 mi SSE 4.6 mph - N/A   Overcast
6:53 PM 80.1 °F 82.7 °F 68.0 °F 67% 29.93 in 10.0 mi Calm Calm - N/A   Overcast
7:53 PM 79.0 °F - 68.0 °F 69% 29.94 in 10.0 mi SSW 3.5 mph - N/A   Mostly Cloudy
8:53 PM 73.9 °F - 68.0 °F 82% 29.93 in 10.0 mi Calm Calm - N/A   Clear
9:53 PM 73.0 °F - 68.0 °F 84% 29.94 in 10.0 mi Calm Calm - N/A   Mostly Cloudy
10:53 PM 72.0 °F - 68.0 °F 87% 29.94 in 10.0 mi Calm Calm - N/A   Scattered Clouds
11:53 PM 70.0 °F - 66.9 °F 90% 29.94 in 10.0 mi Calm Calm - N/A   Clear